Погода в Крушеваце

Сербия     43°35′08″N   21°19′42″E
темп.,
°C
ветер,
м/с
пор.,
м/с
влажн.,
%
обл.,
%
осадки,
мм/ч
давл.,
гПа
погр.,
м
19 апреля, пн
пн1923:00+5св0092100 0.0 101915
02:00+5сз119498 0.0 101720
05:00+4с1195100 0.0 101645
08:00+5с1292100 0.0 1016254
11:00+6ссз1386100 0.5 1015756
14:00+5з3493100 3.1 1015383
17:00+5з2596100 1.9 1014438
20:00+5з2695100 2.9 1014432
20 апреля, вт
вт2023:00+5зюз2396100 1.1 1015210
02:00+5зюз2295100 1.4 1015108
05:00+5юз2494100 0.7 1015215
08:00+6юз1187100 0.8 1016168
11:00+10ссз126784 0.4 10161049
14:00+12ссв2262100 0.9 10151029
17:00+12всв21638 0.4 1014911
20:00+8всв118199 1.2 101610
21 апреля, ср
ср2123:00+8з2289100 0.6 101761
02:00+6ююз349180 3.2 1018114
05:00+5ююз22905 0.0 101821
08:00+8ю127862 0.0 1019248
11:00+13ссз135818 0.1 10191198
14:00+16сз134652 0.4 10172013
17:00+15св22518 0.1 1017878
20:00+10ю116933 0.3 101810
22 апреля, чт
чт2223:00+8ююз22785 0.0 102016
02:00+6ю22834 0.0 102018
05:00+5ю22865 0.0 102017
08:00+10ю12713 0.0 1020244
11:00+16юв234832 0.0 10191202
14:00+19вюв243516 0.0 10172500
17:00+17ююз584989 0.0 1015509
20:00+11ю346199 0.0 101749
23 апреля, пт
пт2323:00+9ююз2266100 0.0 101722
02:00+8ю2267100 0.0 101717
05:00+7зсз1172100 0.0 101810
08:00+10зсз1274100 0.0 1019221
11:00+10ссз4585100 0.2 1020576
14:00+6ссз3690100 1.8 1022644
17:00+5зсз3595100 0.6 1023404
20:00+5зсз1394100 0.7 1023199